Hourly Weather Dundee

Today, 9 July, Thursday

Time Temperature Precipitation Wind Pressure Humidity
00:00 +9°C° 0 mm 2 mps 750 mmHg 91%
01:00 +9°C° 0 mm 2 mps 749 mmHg 92%
02:00 +9°C° 0 mm 1 mps 749 mmHg 93%
03:00 +9°C° 0 mm 1 mps 749 mmHg 94%
04:00 +9°C° 0 mm 1 mps 749 mmHg 92%
05:00 +10°C° 0 mm 1 mps 749 mmHg 91%
06:00 +11°C° 0 mm 1 mps 749 mmHg 89%
07:00 +12°C° 0 mm 1 mps 749 mmHg 84%
08:00 +13°C° 0 mm 1 mps 750 mmHg 80%
09:00 +15°C° 0 mm 1 mps 750 mmHg 75%
10:00 +15°C° 0.1 mm 1 mps 750 mmHg 74%
11:00 +15°C° 0.1 mm 2 mps 750 mmHg 73%
12:00 +16°C° 0.1 mm 2 mps 750 mmHg 72%
13:00 +15°C° 0.4 mm 2 mps 750 mmHg 75%
14:00 +14°C° 0.4 mm 3 mps 750 mmHg 78%
15:00 +13°C° 0.4 mm 3 mps 750 mmHg 82%
16:00 +13°C° 0.6 mm 3 mps 749 mmHg 85%
17:00 +12°C° 0.6 mm 3 mps 749 mmHg 88%
18:00 +11°C° 0.6 mm 3 mps 749 mmHg 91%
19:00 +11°C° 0.4 mm 3 mps 749 mmHg 92%
20:00 +10°C° 0.4 mm 2 mps 750 mmHg 94%
21:00 +10°C° 0.4 mm 2 mps 750 mmHg 95%
22:00 +9°C° 0.1 mm 2 mps 750 mmHg 95%
23:00 +10°C° 0.1 mm 1 mps 750 mmHg 94%

Tomorrow, 10 July, Friday

Time Temperature Precipitation Wind Pressure Humidity
00:00 +10°C° 0.1 mm 1 mps 750 mmHg 94%
01:00 +10°C° 0.2 mm 1 mps 750 mmHg 93%
02:00 +10°C° 0.2 mm 1 mps 750 mmHg 93%
03:00 +10°C° 0.2 mm 1 mps 750 mmHg 93%
04:00 +10°C° 0.2 mm 1 mps 750 mmHg 91%
05:00 +11°C° 0.2 mm 1 mps 750 mmHg 90%
06:00 +11°C° 0.2 mm 1 mps 750 mmHg 88%
07:00 +12°C° 0.1 mm 1 mps 751 mmHg 82%
08:00 +13°C° 0.1 mm 2 mps 751 mmHg 77%
09:00 +14°C° 0.1 mm 2 mps 751 mmHg 71%
10:00 +15°C° 0.2 mm 2 mps 751 mmHg 68%
11:00 +15°C° 0.2 mm 2 mps 751 mmHg 65%
12:00 +16°C° 0.2 mm 2 mps 752 mmHg 61%
13:00 +16°C° 0.4 mm 2 mps 752 mmHg 63%
14:00 +16°C° 0.4 mm 3 mps 752 mmHg 66%
15:00 +16°C° 0.4 mm 3 mps 752 mmHg 68%
16:00 +16°C° 0.4 mm 3 mps 752 mmHg 70%
17:00 +16°C° 0.4 mm 3 mps 752 mmHg 72%
18:00 +15°C° 0.4 mm 2 mps 752 mmHg 74%
19:00 +14°C° 0.1 mm 2 mps 753 mmHg 78%
20:00 +12°C° 0.1 mm 2 mps 753 mmHg 81%
21:00 +10°C° 0.1 mm 2 mps 753 mmHg 84%
22:00 +9°C° 0 mm 2 mps 754 mmHg 86%
23:00 +8°C° 0 mm 2 mps 754 mmHg 87%

Day after tomorrow, 11 July, Saturday

Time Temperature Precipitation Wind Pressure Humidity
00:00 +8°C° 0 mm 2 mps 754 mmHg 88%
01:00 +7°C° 0 mm 3 mps 755 mmHg 88%
02:00 +7°C° 0 mm 3 mps 755 mmHg 89%
03:00 +5°C° 0 mm 3 mps 755 mmHg 89%
04:00 +7°C° 0 mm 3 mps 755 mmHg 88%
05:00 +8°C° 0 mm 3 mps 755 mmHg 88%
06:00 +9°C° 0 mm 3 mps 755 mmHg 87%
07:00 +10°C° 0 mm 3 mps 756 mmHg 81%
08:00 +12°C° 0 mm 3 mps 756 mmHg 75%
09:00 +13°C° 0 mm 3 mps 757 mmHg 70%
10:00 +14°C° 0 mm 3 mps 757 mmHg 68%
11:00 +14°C° 0 mm 3 mps 757 mmHg 67%
12:00 +15°C° 0 mm 4 mps 757 mmHg 66%
13:00 +15°C° 0 mm 4 mps 758 mmHg 65%
14:00 +17°C° 0 mm 4 mps 758 mmHg 64%
15:00 +17°C° 0 mm 4 mps 758 mmHg 63%
16:00 +17°C° 0 mm 4 mps 758 mmHg 65%
17:00 +17°C° 0 mm 4 mps 758 mmHg 67%
18:00 +15°C° 0 mm 4 mps 758 mmHg 70%
19:00 +14°C° 0 mm 3 mps 758 mmHg 74%
20:00 +12°C° 0 mm 3 mps 758 mmHg 78%
21:00 +11°C° 0 mm 3 mps 759 mmHg 82%
22:00 +10°C° 0 mm 3 mps 759 mmHg 84%
23:00 +9°C° 0 mm 3 mps 759 mmHg 87%

12 July, Sunday

Time Temperature Precipitation Wind Pressure Humidity
00:00 +8°C° 0 mm 2 mps 759 mmHg 89%
01:00 +7°C° 0 mm 2 mps 759 mmHg 90%
02:00 +7°C° 0 mm 2 mps 758 mmHg 91%
03:00 +7°C° 0 mm 2 mps 758 mmHg 92%
04:00 +7°C° 0 mm 2 mps 758 mmHg 90%
05:00 +8°C° 0 mm 2 mps 758 mmHg 88%
06:00 +9°C° 0 mm 2 mps 759 mmHg 86%
07:00 +11°C° 0 mm 3 mps 759 mmHg 82%
08:00 +12°C° 0 mm 3 mps 758 mmHg 78%
09:00 +14°C° 0 mm 3 mps 758 mmHg 73%
10:00 +15°C° 0 mm 4 mps 758 mmHg 71%
11:00 +17°C° 0 mm 4 mps 758 mmHg 69%
12:00 +19°C° 0 mm 5 mps 758 mmHg 67%
13:00 +19°C° 0 mm 5 mps 758 mmHg 68%
14:00 +17°C° 0 mm 5 mps 757 mmHg 70%
15:00 +17°C° 0 mm 5 mps 757 mmHg 71%
16:00 +16°C° 0 mm 5 mps 757 mmHg 72%
17:00 +15°C° 0 mm 5 mps 757 mmHg 73%
18:00 +14°C° 0 mm 4 mps 756 mmHg 75%
19:00 +13°C° 0 mm 4 mps 756 mmHg 78%
20:00 +13°C° 0 mm 4 mps 756 mmHg 81%
21:00 +12°C° 0 mm 4 mps 756 mmHg 84%
22:00 +12°C° 0 mm 3 mps 756 mmHg 86%
23:00 +12°C° 0 mm 3 mps 755 mmHg 88%

13 July, Monday

Time Temperature Precipitation Wind Pressure Humidity
00:00 +12°C° 0 mm 3 mps 755 mmHg 90%
01:00 +12°C° 0 mm 3 mps 754 mmHg 92%
02:00 +12°C° 0 mm 3 mps 754 mmHg 93%
03:00 +12°C° 0 mm 3 mps 753 mmHg 94%
04:00 +12°C° 0.1 mm 3 mps 753 mmHg 94%
05:00 +12°C° 0.1 mm 3 mps 753 mmHg 94%
06:00 +12°C° 0.1 mm 3 mps 753 mmHg 94%
07:00 +12°C° 0.1 mm 4 mps 752 mmHg 93%
08:00 +12°C° 0.1 mm 4 mps 752 mmHg 93%
09:00 +13°C° 0.1 mm 4 mps 752 mmHg 92%
10:00 +13°C° 0.1 mm 4 mps 752 mmHg 91%
11:00 +13°C° 0.1 mm 4 mps 752 mmHg 90%
12:00 +13°C° 0.1 mm 4 mps 751 mmHg 89%
13:00 +13°C° 0.2 mm 4 mps 751 mmHg 89%
14:00 +13°C° 0.2 mm 4 mps 751 mmHg 90%
15:00 +13°C° 0.2 mm 4 mps 750 mmHg 90%
16:00 +14°C° 0 mm 3 mps 750 mmHg 88%
17:00 +14°C° 0 mm 3 mps 750 mmHg 87%
18:00 +14°C° 0 mm 3 mps 750 mmHg 85%
19:00 +14°C° 0 mm 2 mps 750 mmHg 88%
20:00 +14°C° 0 mm 2 mps 749 mmHg 90%
21:00 +13°C° 0 mm 2 mps 749 mmHg 92%
22:00 +13°C° 0 mm 2 mps 749 mmHg 93%
23:00 +12°C° 0 mm 2 mps 749 mmHg 93%

14 July, Tuesday

Time Temperature Precipitation Wind Pressure Humidity
00:00 +12°C° 0 mm 2 mps 749 mmHg 93%
01:00 +12°C° 0 mm 2 mps 749 mmHg 93%
02:00 +12°C° 0 mm 2 mps 749 mmHg 93%
03:00 +12°C° 0 mm 2 mps 749 mmHg 93%
04:00 +12°C° 0 mm 2 mps 749 mmHg 92%
05:00 +13°C° 0 mm 2 mps 749 mmHg 90%
06:00 +13°C° 0 mm 2 mps 749 mmHg 89%
07:00 +14°C° 0 mm 2 mps 749 mmHg 85%
08:00 +15°C° 0 mm 2 mps 749 mmHg 81%
09:00 +17°C° 0 mm 2 mps 749 mmHg 77%
10:00 +17°C° 0.1 mm 2 mps 749 mmHg 75%
11:00 +18°C° 0.1 mm 2 mps 749 mmHg 73%
12:00 +18°C° 0.1 mm 3 mps 749 mmHg 70%
13:00 +19°C° 0.1 mm 3 mps 749 mmHg 70%
14:00 +19°C° 0.1 mm 4 mps 748 mmHg 70%
15:00 +19°C° 0.1 mm 5 mps 748 mmHg 69%
16:00 +17°C° 0.1 mm 5 mps 748 mmHg 72%
17:00 +17°C° 0.1 mm 4 mps 748 mmHg 74%
18:00 +15°C° 0.1 mm 4 mps 748 mmHg 77%
19:00 +14°C° 0 mm 4 mps 748 mmHg 80%
20:00 +13°C° 0 mm 4 mps 747 mmHg 83%
21:00 +12°C° 0 mm 3 mps 747 mmHg 87%
22:00 +12°C° 0 mm 3 mps 747 mmHg 89%
23:00 +12°C° 0 mm 3 mps 747 mmHg 91%
Show more